#timestamp,LO_Frequency,Hit,StdDev 
1640588415.7,286047002.7,P
1640588435.5,286047002.1,N
1640588455.4,286047002.3,Y
1640588475.2,286046998.4,P
1640588495.0,286046999.3,N
1640588495.9,286046999.3,N
1640588515.8,286046999.5,N
1640588535.6,286046999.1,N
1640588555.5,286046996.6,N
1640588575.3,286046999.1,N
1640588595.1,286046999.4,N
1640588615.9,286046999.6,N
1640588635.7,286046999.1,N
1640588655.5,286046998.8,N
1640588675.4,286046998.1,N
1640588695.2,286047001.2,N
1640588715.1,286046998.7,N
1640588716.0,286046998.7,N
1640588735.8,286046997.3,N
1640588755.6,286046997.6,N
1640588775.5,286046995.3,Y
1640588795.3,286046999.4,P
1640588815.1,286046996.6,P
1640588835.9,286046998.8,N
1640588855.7,286046998.4,N
1640588875.6,286046999.5,N
1640588895.4,286046996.5,Y
1640588915.2,286046998.8,P
1640588935.1,286046998.8,P
1640588936.0,286046998.8,P
1640588955.8,286047000.7,Y
1640588975.7,286047000.1,P
1640588995.5,286047000.3,N
1640589015.3,286046999.7,N
1640589035.2,286046999.8,N
1640589055.0,286047002.7,Y
1640589055.9,286047002.7,P
1640589075.8,286047004.2,N
1640589095.6,286047005.9,P
1640589115.4,286047003.3,N
1640589135.3,286047003.7,N
1640589155.1,286047003.7,N
1640589175.8,286047003.8,N
1640589195.7,286047002.1,N
1640589215.5,286047001.9,N
1640589235.4,286047002.1,N
1640589255.2,286046999.8,N
1640589275.0,286047000.5,N
1640589275.9,286047000.5,N
1640589295.8,286047002.0,N
1640589315.6,286047001.9,N
1640589335.4,286047002.2,N
1640589355.3,286047002.1,N
1640589375.1,286047001.3,N
1640589395.9,286047004.3,N
1640589415.7,286047004.4,N
1640589435.5,286047004.4,N
1640589455.4,286047001.6,N
1640589475.2,286047002.6,N
1640589495.0,286047001.6,N
1640589495.9,286047001.6,N
1640589515.8,286047004.4,N
1640589535.6,286047001.9,N
1640589555.5,286047002.1,N
1640589575.3,286047001.9,N
1640589595.1,286047001.8,N
1640589615.9,286047002.4,N
1640589635.7,286047000.5,N
1640589655.5,286046999.8,N
1640589675.4,286047004.3,Y
1640589695.2,286047000.6,P
1640589715.1,286046998.2,N
1640589716.0,286046998.2,N
1640589735.8,286047000.9,N
1640589755.7,286047002.7,N
1640589775.5,286047002.5,N
1640589795.3,286047001.7,N
1640589815.2,286047002.7,N
1640589835.0,286046999.9,N
1640589835.9,286046999.9,N
1640589855.8,286046999.9,N
1640589875.6,286047002.5,N
1640589895.4,286047001.9,N
1640589915.3,286047004.1,N
1640589935.1,286047003.9,N
1640589955.8,286047004.0,N
1640589975.7,286047002.3,N
1640589995.5,286047000.8,N
1640590015.4,286047000.0,N
1640590035.2,286047000.6,N
1640590055.0,286047002.3,N
1640590055.9,286047002.3,N
1640590075.8,286046998.5,N
1640590095.6,286047000.6,N
1640590115.5,286047000.9,N
1640590135.3,286047000.0,N
1640590155.1,286047002.4,N
1640590175.9,286047002.7,N
1640590195.7,286047001.9,N
1640590215.5,286047000.5,N
1640590235.4,286047001.1,N
1640590255.2,286047001.1,N
1640590275.1,286046998.8,N
1640590276.0,286046998.8,N
1640590295.8,286046998.6,N
1640590315.6,286046999.3,N
1640590335.5,286046999.2,N
1640590355.3,286046999.1,N
1640590375.1,286046996.6,N
1640590395.9,286046999.2,N
1640590415.7,286046998.4,N
1640590435.6,286046998.2,N
1640590455.4,286047001.1,N
1640590475.2,286047000.8,N
1640590495.1,286047001.1,N
1640590496.0,286047001.1,N
1640590515.8,286047000.7,N
1640590535.6,286047000.3,N
1640590555.5,286047000.6,N
1640590575.3,286047000.7,N
1640590595.2,286046999.0,N
1640590615.9,286046999.9,N
1640590635.7,286046998.5,N
1640590655.6,286046998.9,N
1640590675.4,286046998.1,N
1640590695.3,286046999.0,N
1640590715.1,286046999.5,N
1640590716.0,286046999.5,N
1640590735.8,286046998.9,N
1640590755.7,286046998.8,N
1640590775.5,286046999.2,N
1640590795.3,286046999.3,N
1640590815.2,286046998.1,N
1640590835.0,286047000.7,N
1640590835.9,286047000.7,N
1640590855.8,286047000.4,N
1640590875.6,286046999.1,N
1640590895.4,286046998.9,N
1640590915.3,286046999.6,N
1640590935.1,286046997.5,N
1640590955.8,286046997.6,N
1640590975.7,286046997.1,N
1640590995.5,286046999.5,N
1640591015.4,286046998.7,N
1640591035.2,286046996.9,N
1640591055.0,286046996.5,Y
1640591055.9,286046996.5,P
1640591075.8,286046998.1,N
1640591095.6,286047000.9,N
1640591115.5,286046998.8,N
1640591135.3,286046999.2,N
1640591155.1,286046998.7,N
1640591175.9,286046998.7,N
1640591195.7,286046999.4,N
1640591215.5,286046996.7,Y
1640591235.4,286046999.2,P
1640591255.2,286046997.1,P
1640591275.1,286046999.4,N
1640591276.0,286046999.4,N
1640591295.8,286046999.1,N
1640591315.6,286046998.8,N
1640591335.5,286047000.9,N
1640591355.3,286046998.3,N
1640591375.2,286046998.1,N
1640591395.9,286046999.8,N
1640591415.7,286047004.0,Y
1640591435.6,286047003.4,P
1640591455.4,286047005.3,N
1640591475.3,286047005.8,N
1640591495.1,286047004.0,N
1640591515.9,286047004.3,N
1640591535.7,286047002.2,N
1640591555.5,286047001.8,N
1640591575.4,286047004.4,N
1640591595.2,286047002.6,N
1640591615.0,286047002.8,N
1640591615.9,286047002.8,N
1640591635.8,286047002.7,N
1640591655.6,286047000.2,N
1640591675.5,286047002.3,N
1640591695.3,286047002.0,N
1640591715.1,286047002.3,N
1640591735.9,286047001.7,N
1640591755.7,286047004.2,N
1640591775.5,286047004.3,N
1640591795.4,286047003.9,N
1640591815.2,286047001.5,N
1640591835.1,286047001.3,N
1640591836.0,286047001.3,N
1640591855.8,286047002.1,N
1640591875.6,286047001.9,N
1640591895.5,286047002.1,N
1640591915.3,286046999.8,N
1640591935.1,286047002.5,N
1640591955.9,286047000.2,N
1640591975.7,286047001.2,N
1640591995.6,286047001.1,N
